Terminal Aerodrome Forecast
Issued by NWS

Home | Current Version | Previous Version | Text Only | Print | Product List | Glossary On
Versions: 1 2 3 4 5 6 7 8 9 10 11 12 13 14 15 16 17 18 19 20 21 22 23 24 25 26 27 28 29 30
000
FTUS41 KOKX 261942 AAA
TAFTEB
TAF AMD
KTEB 261942Z 2620/2718 17009KT P6SM FEW080 SCT250
     FM270200 19004KT P6SM FEW120 SCT250
     FM271700 19007KT P6SM SCT100 SCT250=

USA.gov is the U.S. government's official web portal to all federal, state and local government web resources and services.